Miscellaneous Local Product
Issued by NWS Hastings, NE

Home | Current Version | Previous Version | Graphics & Text | Print | Product List | Glossary On
Versions: 1 2 3 4 5 6 7 8 9 10 11 12 13 14 15 16 17 18 19 20 21 22 23 24 25 26 27 28 29 30 31 32 33 34 35 36 37 38 39 40 41 42 43 44 45 46 47 48 49 50
000
AXUS43 KGID 240702
MISGRI

GID CWA HOURLY WEATHER ROUNDUP
NATIONAL WEATHER SERVICE HASTINGS NE
200 AM CDT SUN SEP 24 2017

NOTE: "FAIR" INDICATES FEW OR NO CLOUDS BELOW 12,000 FEET WITH NO
SIGNIFICANT WEATHER AND/OR OBSTRUCTIONS TO VISIBILITY.

...SOUTH CENTRAL NEBRASKA...

CITY           SKY/WX    TMP DP  RH WIND       PRES   REMARKS
GRAND ISLAND   CLOUDY    70  63  78 SE10      29.87F
HASTINGS       CLOUDY    73  60  63 S10       29.88S
KEARNEY        CLOUDY    60  58  92 NE6       29.88F
ORD            CLOUDY    58  55  90 N5        29.88F
YORK           PTCLDY    72  63  73 S8        29.89F
AURORA         PTCLDY    68  62  80 SE8       29.88S
LEXINGTON      CLOUDY    58  56  94 NE5       29.87F
HOLDREGE       CLOUDY    59  57  94 N3        29.88S
HEBRON         MOCLDY    74  62  67 S7        29.89S

...NEBRASKA PANHANDLE...

CITY           SKY/WX    TMP DP  RH WIND       PRES   REMARKS
CHADRON        LGT RAIN  46  44  93 NE9       29.97F
ALLIANCE       LGT RAIN  45  43  93 N8        29.96F
SCOTTSBLUFF    LGT RAIN  46  43  89 S3        29.96S
SIDNEY         LGT RAIN  44  43  96 NE12      29.94F

...WESTERN AND NORTH CENTRAL NEBRASKA...

CITY           SKY/WX    TMP DP  RH WIND       PRES   REMARKS
VALENTINE      LGT RAIN  51  50  96 N6        29.93R
AINSWORTH      RAIN      50  50 100 N5        29.91F
ONEILL         CLOUDY    54  54 100 NW7       29.90S FOG
BROKEN BOW     LGT RAIN  54  54 100 N6        29.90S
IMPERIAL       LGT RAIN  51  49  92 N15       29.91S
NORTH PLATTE   RAIN      53  53 100 N3        29.90R FOG
MCCOOK         CLOUDY    58  58 100 E9        29.84F

...EASTERN NEBRASKA...

CITY           SKY/WX    TMP DP  RH WIND       PRES   REMARKS
NORFOLK        CLEAR     57  57 100 SE7       29.87F
SO SIOUX CITY  CLEAR     61  60  97 NW3       29.89S
TEKAMAH        MOCLDY    70  65  84 SE7       29.89S
COLUMBUS       CLEAR     74  63  68 S9G17     29.89R
ALBION         MOCLDY    57  56  96 CALM      29.88S
OMAHA EPPLEY   MOCLDY    74  65  73 S10       29.91S
MILLARD        CLOUDY    74  67  76 SE5       29.91S
LINCOLN        CLEAR     73  63  70 S10       29.89S
NEBRASKA CITY  CLEAR     72  67  87 S8        29.93S
BEATRICE       CLEAR     74  64  69 SE9G16    29.90S
FALLS CITY     CLEAR     69  65  86 SE3       29.92S

...NORTHERN KANSAS...

CITY           SKY/WX    TMP DP  RH WIND       PRES   REMARKS
GOODLAND       HVY RAIN  56  55  97 NW21G32   29.87R VSB 3/4
HILL CITY      LGT RAIN  65  64  97 E3        29.87F
NORTON         LGT RAIN  61  57  88 E6        29.86
PHILLIPSBURG   MOCLDY    70  59  68 W6        29.87S
SMITH CENTER   CLOUDY    72  61  68 SE13G18   29.86F
HAYS           MOCLDY    73  61  65 SE15      29.87S
RUSSELL        MOCLDY    74  62  66 S16       29.87R
CONCORDIA      PTCLDY    73  63  70 S14       29.88S
SALINA         CLEAR     76  63  64 SE12      29.88S
TOPEKA         CLEAR     70  67  90 CALM      29.92F



USA.gov is the U.S. government's official web portal to all federal, state and local government web resources and services.